Voltar ao catálogo

STARLINK-36703

AtivoComunicaçõesSSO
NORAD 67650·PAYLOAD·🇺🇸 United States

Lançado Feb 2, 2026 de Vandenberg Space Force Base

Loading…

Próximas Passagens (próximas 24 horas)

TLE

AtualizadoSource: CelesTrak SupGP

Época: Sep 14, 2026, 23:12 UTC

1 67650C 26022C   26257.96715278  .00058437  00000+0  18143-2 0  2575
2 67650  97.2839 289.6109 0001074 104.7510  99.8358 15.33404624    14

Acompanhe STARLINK-36703 em tempo real com AllMySat

Download on the App Store